Tillbaka till svenska Fidonet
English   Information   Debug  
FILM   0/18
FNEWS_PUBLISH   4983
FN_SYSOP   42232
FN_SYSOP_OLD1   71952
FTP_FIDO   0/2
FTSC_PUBLIC   0/13976
FUNNY   0/4886
GENEALOGY.EUR   0/71
GET_INFO   105
GOLDED   345/408
HAM   0/16711
HOLYSMOKE   0/6791
HOT_SITES   0/1
HTMLEDIT   0/71
HUB203   466
HUB_100   264
HUB_400   39
HUMOR   0/29
IC   793/2851
INTERNET   0/424
INTERUSER   0/3
IP_CONNECT   719
JAMNNTPD   0/233
JAMTLAND   0/47
KATTY_KORNER   0/41
LAN   0/16
LINUX-USER   0/19
LINUXHELP   0/1155
LINUX   0/22381
LINUX_BBS   0/957
mail   18.68
mail_fore_ok   249
MENSA   0/341
MODERATOR   0/102
MONTE   0/992
MOSCOW_OKLAHOMA   0/1245
MUFFIN   0/783
MUSIC   0/321
N203_STAT   938
N203_SYSCHAT   313
NET203   321
NET204   69
NET_DEV   0/10
NORD.ADMIN   0/101
NORD.CHAT   0/2572
NORD.FIDONET   189
NORD.HARDWARE   0/28
NORD.KULTUR   0/114
NORD.PROG   0/32
NORD.SOFTWARE   0/88
NORD.TEKNIK   0/58
NORD   0/453
OCCULT_CHAT   0/93
OS2BBS   0/787
OS2DOSBBS   0/580
OS2HW   0/42
OS2INET   0/37
OS2LAN   0/134
OS2PROG   0/36
OS2REXX   0/113
OS2USER-L   207
OS2   0/4831
OSDEBATE   0/18996
PASCAL   0/490
PERL   0/457
PHP   0/45
POINTS   0/405
POLITICS   0/29554
POL_INC   0/14731
PSION   103
R20_ADMIN   1133
R20_AMATORRADIO   0/2
R20_BEST_OF_FIDONET   16
R20_CHAT   0/897
R20_DEPP   0/3
R20_DEV   400
R20_ECHO2   1888
R20_ECHOPRES   0/35
R20_ESTAT   0/719
R20_FIDONETPROG...
...RAM.MYPOINT
  0/2
R20_FIDONETPROGRAM   0/22
R20_FIDONET   0/248
R20_FILEFIND   0/24
R20_FILEFOUND   0/22
R20_HIFI   0/3
R20_INFO2   3781
R20_INTERNET   0/12940
R20_INTRESSE   0/60
R20_INTR_KOM   0/99
R20_KANDIDAT.CHAT   42
R20_KANDIDAT   28
R20_KOM_DEV   112
R20_KONTROLL   0/13360
R20_KORSET   0/18
R20_LOKALTRAFIK   0/24
R20_MODERATOR   0/1852
R20_NC   76
R20_NET200   245
R20_NETWORK.OTH...
...ERNETS
  0/13
R20_OPERATIVSYS...
...TEM.LINUX
  0/44
R20_PROGRAMVAROR   0/1
R20_REC2NEC   534
R20_SFOSM   0/341
R20_SF   0/108
R20_SPRAK.ENGLISH   0/1
R20_SQUISH   107
R20_TEST   2
R20_WORST_OF_FIDONET   20
RAR   0/9
RA_MULTI   106
RA_UTIL   0/162
REGCON.EUR   0/2069
REGCON   0/13
SCIENCE   0/1206
SF   0/239
SHAREWARE_SUPPORT   0/5146
SHAREWRE   0/14
SIMPSONS   0/169
STATS_OLD1   0/2539.065
STATS_OLD2   0/2530
STATS_OLD3   0/2395.095
STATS_OLD4   0/1692.25
SURVIVOR   0/495
SYSOPS_CORNER   0/3
SYSOP   0/84
TAGLINES   0/112
TEAMOS2   0/4530
TECH   0/2617
TEST.444   0/105
TRAPDOOR   0/19
TREK   0/755
TUB   0/290
UFO   0/40
UNIX   0/1316
USA_EURLINK   0/102
USR_MODEMS   0/1
VATICAN   0/2740
VIETNAM_VETS   0/14
VIRUS   0/378
VIRUS_INFO   0/201
VISUAL_BASIC   0/473
WHITEHOUSE   0/5187
WIN2000   0/101
WIN32   0/30
WIN95   0/4291
WIN95_OLD1   0/70272
WINDOWS   0/1517
WWB_SYSOP   0/419
WWB_TECH   677/810
ZCC-PUBLIC   0/1
ZEC   4

 
4DOS   0/134
ABORTION   0/7
ALASKA_CHAT   0/506
ALLFIX_FILE   0/1313
ALLFIX_FILE_OLD1   0/7997
ALT_DOS   0/152
AMATEUR_RADIO   0/1039
AMIGASALE   0/14
AMIGA   0/331
AMIGA_INT   0/1
AMIGA_PROG   0/20
AMIGA_SYSOP   0/26
ANIME   0/15
ARGUS   0/924
ASCII_ART   0/340
ASIAN_LINK   0/651
ASTRONOMY   0/417
AUDIO   0/92
AUTOMOBILE_RACING   0/105
BABYLON5   0/17862
BAG   135
BATPOWER   0/361
BBBS.ENGLISH   0/382
BBSLAW   0/109
BBS_ADS   0/5290
BBS_INTERNET   0/507
BIBLE   1306/3563
BINKD   0/1119
BINKLEY   0/215
BLUEWAVE   0/2173
CABLE_MODEMS   0/25
CBM   0/46
CDRECORD   0/66
CDROM   0/20
CLASSIC_COMPUTER   0/378
COMICS   0/15
CONSPRCY   0/899
COOKING   41996
COOKING_OLD1   0/24719
COOKING_OLD2   5971/40862
COOKING_OLD3   0/37489
COOKING_OLD4   15498/35496
COOKING_OLD5   9370
C_ECHO   0/189
C_PLUSPLUS   0/31
DIRTY_DOZEN   0/201
DOORGAMES   0/2333
DOS_INTERNET   0/196
duplikat   6102
ECHOLIST   13188/18295
EC_SUPPORT   19/318
ELECTRONICS   0/359
ELEKTRONIK.GER   1534
ENET.LINGUISTIC   0/13
ENET.POLITICS   0/4
ENET.SOFT   0/11701
ENET.SYSOP   34332
ENET.TALKS   0/32
ENGLISH_TUTOR   0/2000
EVOLUTION   0/1335
FDECHO   0/217
FDN_ANNOUNCE   2355/7068
FIDONEWS   25122
FIDONEWS_OLD1   0/49742
FIDONEWS_OLD2   0/35949
FIDONEWS_OLD3   0/30874
FIDONEWS_OLD4   0/37224
FIDO_SYSOP   12973
FIDO_UTIL   0/180
FILEFIND   0/209
FILEGATE   0/212
Möte HAM, 16711 texter
 lista första sista föregående nästa
Text 846, 748 rader
Skriven 2006-02-24 00:31:29 av Amsat List (1:323/120.0)
Ärende: 
========
SB KEPS @ AMSAT  $ORB06054.O
Orbital Elements  06054.OSCAR

HR AMSAT ORBITAL ELEMENTS FOR OSCAR SATELLITES
FROM WA5QGD FORT WORTH,TX February 23, 2006
Send SUBSCRIBE KEPS/UNSUBSCRIBE KEPS to majordomo@amsat.org only
BID: ORB06054.O
TO ALL RADIO AMATEURS BT

Satellite: AO-07
Catalog number: 07530
Epoch time:      06053.98359134
Element set:    0562
Inclination:      101.5888 deg
RA of node:       099.6989 deg
Eccentricity:    0.0012134
Arg of perigee:   108.2859 deg
Mean anomaly:     251.9534 deg
Mean motion:   12.53572009 rev/day
Decay rate:       -2.8e-07 rev/day^2
Epoch rev:           43107
Checksum:              316

Satellite: AO-10
Catalog number: 14129
Epoch time:      06050.75324048
Element set:     262
Inclination:      027.4613 deg
RA of node:       348.3380 deg
Eccentricity:    0.6030841
Arg of perigee:   262.9639 deg
Mean anomaly:     029.4456 deg
Mean motion:   02.05868743 rev/day
Decay rate:      -2.73e-06 rev/day^2
Epoch rev:           17063
Checksum:              296

Satellite: UO-11
Catalog number: 14781
Epoch time:      06054.75952780
Element set:       1
Inclination:      098.2104 deg
RA of node:       062.5561 deg
Eccentricity:    0.0008142
Arg of perigee:   271.8436 deg
Mean anomaly:     088.1835 deg
Mean motion:   14.79383543 rev/day
Decay rate:        2.5e-07 rev/day^2
Epoch rev:           17899
Checksum:              309

Satellite: RS-10/11
Catalog number: 18129
Epoch time:      06053.82647813
Element set:    0923
Inclination:      082.9220 deg
RA of node:       052.7479 deg
Eccentricity:    0.0013304
Arg of perigee:   054.3008 deg
Mean anomaly:     305.9384 deg
Mean motion:   13.72771157 rev/day
Decay rate:        2.7e-07 rev/day^2
Epoch rev:           93546
Checksum:              299

Satellite: RS-15
Catalog number: 23439
Epoch time:      06053.95847432
Element set:    0928
Inclination:      064.8170 deg
RA of node:       061.9723 deg
Eccentricity:    0.0168037
Arg of perigee:   273.3797 deg
Mean anomaly:     084.7918 deg
Mean motion:   11.27552079 rev/day
Decay rate:       -3.9e-07 rev/day^2
Epoch rev:           45966
Checksum:              349

Satellite: FO-29
Catalog number: 24278
Epoch time:      06054.50322611
Element set:     166
Inclination:      098.5153 deg
RA of node:       074.7342 deg
Eccentricity:    0.0349807
Arg of perigee:   244.6738 deg
Mean anomaly:     111.7790 deg
Mean motion:   13.52918904 rev/day
Decay rate:       -5.5e-07 rev/day^2
Epoch rev:           47017
Checksum:              314

Satellite: SO-33
Catalog number: 25509
Epoch time:      06054.35979332
Element set:     587
Inclination:      031.4323 deg
RA of node:       052.7780 deg
Eccentricity:    0.0355221
Arg of perigee:   201.4966 deg
Mean anomaly:     157.0393 deg
Mean motion:   14.28076961 rev/day
Decay rate:       2.27e-06 rev/day^2
Epoch rev:           38275
Checksum:              312

Satellite: AO-40
Catalog number: 26609
Epoch time:      06052.30754724
Element set:     680
Inclination:      007.2901 deg
RA of node:       254.4492 deg
Eccentricity:    0.7920660
Arg of perigee:   133.8786 deg
Mean anomaly:     326.7442 deg
Mean motion:   01.25584085 rev/day
Decay rate:      -1.37e-06 rev/day^2
Epoch rev:            2439
Checksum:              307

Satellite: VO-52
Catalog number: 28650
Epoch time:      06054.68987725
Element set:     260
Inclination:      097.8814 deg
RA of node:       129.6980 deg
Eccentricity:    0.0027712
Arg of perigee:   013.1128 deg
Mean anomaly:     347.0829 deg
Mean motion:   14.81054027 rev/day
Decay rate:       1.28e-06 rev/day^2
Epoch rev:            4358
Checksum:              316

/EX
SB KEPS @ AMSAT  $ORB06054.D
Orbital Elements  06054.MICROS

HR AMSAT ORBITAL ELEMENTS FOR THE MICROSATS
FROM WA5QGD FORT WORTH,TX February 23, 2006
Send SUBSCRIBE KEPS/UNSUBSCRIBE KEPS to majordomo@amsat.org only
BID: ORB06054.D
TO ALL RADIO AMATEURS BT

Satellite: AO-16
Catalog number: 20439
Epoch time:      06054.58381211
Element set:     681
Inclination:      098.1952 deg
RA of node:       070.8877 deg
Eccentricity:    0.0011457
Arg of perigee:   168.2919 deg
Mean anomaly:     191.8534 deg
Mean motion:   14.31710429 rev/day
Decay rate:       -4.7e-07 rev/day^2
Epoch rev:           84006
Checksum:              313

Satellite: WO-18
Catalog number: 20441
Epoch time:      06054.22640523
Element set:     881
Inclination:      098.1975 deg
RA of node:       075.1374 deg
Eccentricity:    0.0011016
Arg of perigee:   170.7567 deg
Mean anomaly:     189.3818 deg
Mean motion:   14.31782253 rev/day
Decay rate:        4.0e-08 rev/day^2
Epoch rev:           84007
Checksum:              293

Satellite: LO-19
Catalog number: 20442
Epoch time:      06054.63326715
Element set:     618
Inclination:      098.2006 deg
RA of node:       080.3009 deg
Eccentricity:    0.0011789
Arg of perigee:   168.2597 deg
Mean anomaly:     191.8865 deg
Mean motion:   14.31955113 rev/day
Decay rate:       -1.4e-07 rev/day^2
Epoch rev:           84020
Checksum:              296

Satellite: UO-22
Catalog number: 21575
Epoch time:      06054.47566809
Element set:     632
Inclination:      098.2809 deg
RA of node:       015.8420 deg
Eccentricity:    0.0008380
Arg of perigee:   055.0534 deg
Mean anomaly:     305.1445 deg
Mean motion:   14.39535348 rev/day
Decay rate:       1.20e-06 rev/day^2
Epoch rev:           76665
Checksum:              302

Satellite: KO-23
Catalog number: 22077
Epoch time:      06054.87055309
Element set:     719
Inclination:      066.0887 deg
RA of node:       339.3642 deg
Eccentricity:    0.0005780
Arg of perigee:   194.8478 deg
Mean anomaly:     165.2364 deg
Mean motion:   12.86435377 rev/day
Decay rate:       -3.7e-07 rev/day^2
Epoch rev:           63596
Checksum:              342

